Terminal Aerodrome Forecast
Issued by NWS

Home | Current Version | Previous Version | Text Only | Print | Product List | Glossary On
Versions: 1 2 3 4 5 6 7 8 9 10 11 12 13 14 15 16 17 18 19 20 21 22 23 24 25 26 27 28 29 30 31 32 33 34 35 36 37 38
942
FTUS45 KSLC 062320
TAFPVU
TAF
KPVU 062320Z 0700/0724 00000KT P6SM SCT090 BKN200
     FM070800 00000KT 4SM BR SCT002 SCT200
     FM071800 VRB03KT 6SM HZ SCT090 SCT200
      AMD LTD TO CLD VIS AND WIND=

USA.gov is the U.S. government's official web portal to all federal, state and local government web resources and services.